This is the latest recevied weather packets stored in our database for station/object EA1HTW-13. If no packets are shown the sender has not sent any weather packets the latest 10 day(s).
| Time | Temp. | Humidity | Pressure | Rain* | Wind** | Luminosity | Snow |
|---|---|---|---|---|---|---|---|
| 1777828634 | 18.33° C | 56% | 1007 hPa | 0 mm | - | - | - |
| 1777828094 | 18.33° C | 55% | 1007 hPa | 0 mm | - | - | - |
| 1777827554 | 18.33° C | 56% | 1006.9 hPa | 0 mm | - | - | - |
| 1777827014 | 18.89° C | 54% | 1006.9 hPa | 0 mm | - | - | - |
| 1777826475 | 20° C | 51% | 1007 hPa | 0 mm | - | - | - |
| 1777825935 | 21.11° C | 50% | 1007 hPa | 0 mm | - | - | - |
| 1777825395 | 21.67° C | 48% | 1006.7 hPa | 0 mm | - | - | - |
| 1777824854 | 21.67° C | 48% | 1006.8 hPa | 0 mm | - | - | - |
| 1777824315 | 22.22° C | 43% | 1006.9 hPa | 0 mm | - | - | - |
| 1777823774 | 23.33° C | 42% | 1006.9 hPa | 0 mm | - | - | - |
| 1777823235 | 23.33° C | 41% | 1006.9 hPa | 0 mm | - | - | - |
| 1777822695 | 22.78° C | 43% | 1007.1 hPa | 0 mm | - | - | - |
| 1777822155 | 22.78° C | 43% | 1006.8 hPa | 0 mm | - | - | - |
| 1777821615 | 22.78° C | 44% | 1006.9 hPa | 0 mm | - | - | - |
| 1777821075 | 22.78° C | 43% | 1006.9 hPa | 0 mm | - | - | - |
| 1777820534 | 22.78° C | 43% | 1006.7 hPa | 0 mm | - | - | - |
| 1777819994 | 22.78° C | 42% | 1006.7 hPa | 0 mm | - | - | - |
| 1777819454 | 22.78° C | 41% | 1006.9 hPa | 0 mm | - | - | - |
| 1777818915 | 22.78° C | 42% | 1006.9 hPa | 0 mm | - | - | - |
| 1777818375 | 22.22° C | 45% | 1006.9 hPa | 0 mm | - | - | - |
| 1777817834 | 22.22° C | 49% | 1006.9 hPa | 0 mm | - | - | - |
| 1777817295 | 21.67° C | 50% | 1007 hPa | 0 mm | - | - | - |
| 1777816754 | 21.67° C | 50% | 1007 hPa | 0 mm | - | - | - |
| 1777816215 | 21.11° C | 53% | 1007 hPa | 0 mm | - | - | - |
| 1777815675 | 20° C | 54% | 1007 hPa | 0 mm | - | - | - |
* Rain latest hour (hover to see other rain measurements)
** Current wind speed in m/s (hover to see current wind gust speed)